Location: Bidwell Hollow
(37.7387°N, 90.1707°W)
Time: 23:15:18
(UTC+00:00)

Transit 2A - Pass Details

Date: 10 May 2026
Orbit: 595 x 949 km, 66.7° (Epoch: 6 June)

Event Time Altitude Azimuth Distance (km) Brightness Sun altitude
Rises 06:59:51 0° 342° (NNW) 3,193 9.9 -32.7°
Reaches altitude 10° 07:02:46 10° 357° (N) 2,198 9.1 -32.5°
Maximum altitude 07:06:43 23° 50° (NE) 1,414 7.8 -32.2°
Enters shadow 07:07:54 21° 72° (ENE) 1,476 7.8 -32.2°
